Atlanta, GA

3:34 AM EST on December 11, 2016 (GMT -0500)
Dekalb-Peachtree

Weather History for KPDK - March, 2012

Change the Weather History Date:

Wednesday, March 28, 2012

  Actual Average Record
Temperature  
Mean Temperature 68 °F 57 °F  
Max Temperature 81 °F 69 °F 82 °F (2007)
Min Temperature 55 °F 45 °F 30 °F (2001)
Degree Days  
Heating Degree Days 0 9  
Month to date heating degree days 345  
Since 1 July heating degree days 2746  
Cooling Degree Days 2 0  
Month to date cooling degree days 0  
Year to date cooling degree days 0  
Growing Degree Days 18 (Base 50)    
Moisture  
Dew Point 51 °F    
Average Humidity 65    
Maximum Humidity 94    
Minimum Humidity 31    
Precipitation  
Precipitation 0.00 in 0.14 in 1.08 in (2009)
Month to date precipitation 4.56  
Year to date precipitation 14.37  
Sea Level Pressure  
Sea Level Pressure 30.13 in    
Wind  
Wind Speed 4 mph (SW)    
Max Wind Speed 16 mph    
Max Gust Speed 21 mph    
Visibility 8 miles    
Events      
T = Trace of Precipitation, MM = Missing Value Source: NWS Daily Summary

Daily Weather History Graph

Daily Weather History Graph

Search for Another Location

Airport or City:

Trip Planner

Search our weather history database for the weather conditions in past years. The results will help you decide how hot, cold, wet, or windy it might be!

Date:

Astronomy

Mar. 28, 2012 Rise Set
Actual Time 7:29 AM EDT 7:55 PM EDT
Civil Twilight 7:04 AM EDT 8:20 PM EDT
Nautical Twilight 6:34 AM EDT 8:49 PM EDT
Astronomical Twilight 6:05 AM EDT 9:19 PM EDT
Moon 10:59 AM EDT (3/28) 12:42 AM EDT (3/28)
Length of Visible Light 13h 16m
Length of Day
12h 25m
Waxing Crescent, 30% of the Moon is Illuminated
Mar 28
Waxing Crescent
Mar 30
First Quarter
Apr 6
Full
Apr 13
Last Quarter
Apr 21
New

Hourly Weather History & Observations

Time (EDT) Temp. Dew Point Humidity Pressure Visibility Wind Dir Wind Speed Gust Speed Precip Events Conditions
12:53 AM 61.0 °F 45.0 °F 56% 30.19 in 10.0 mi Calm Calm - N/A   Clear
1:53 AM 60.1 °F 48.0 °F 64% 30.18 in 10.0 mi ESE 3.5 mph - N/A   Clear
2:53 AM 60.1 °F 50.0 °F 69% 30.17 in 10.0 mi SSE 5.8 mph - N/A   Clear
3:53 AM 59.0 °F 52.0 °F 78% 30.15 in 9.0 mi SSE 3.5 mph - N/A   Clear
4:53 AM 57.9 °F 53.1 °F 84% 30.14 in 9.0 mi Calm Calm - N/A   Clear
5:41 AM 57.2 °F 53.6 °F 88% 30.17 in 8.0 mi SSE 3.5 mph - N/A   Mostly Cloudy
5:53 AM 57.0 °F 53.1 °F 87% 30.14 in 8.0 mi SSE 3.5 mph - N/A   Mostly Cloudy
6:07 AM 55.4 °F 53.6 °F 94% 30.17 in 8.0 mi Calm Calm - N/A   Scattered Clouds
6:23 AM 55.4 °F 53.6 °F 94% 30.18 in 7.0 mi Calm Calm - N/A   Partly Cloudy
6:53 AM 55.9 °F 53.1 °F 90% 30.16 in 7.0 mi Calm Calm - N/A   Clear
7:10 AM 55.4 °F 53.6 °F 94% 30.19 in 7.0 mi Calm Calm - N/A   Scattered Clouds
7:48 AM 55.4 °F 53.6 °F 94% 30.20 in 5.0 mi Calm Calm - N/A   Mostly Cloudy
7:53 AM 55.9 °F 53.1 °F 90% 30.19 in 5.0 mi South 3.5 mph - N/A   Mostly Cloudy
8:17 AM 57.2 °F 53.6 °F 88% 30.21 in 4.0 mi SSE 4.6 mph - N/A   Partly Cloudy
8:53 AM 59.0 °F 55.0 °F 87% 30.20 in 5.0 mi Calm Calm - N/A   Partly Cloudy
9:53 AM 60.1 °F 55.9 °F 86% 30.20 in 6.0 mi SW 3.5 mph - N/A   Clear
10:53 AM 66.9 °F 55.9 °F 68% 30.20 in 8.0 mi WSW 5.8 mph - N/A   Clear
11:53 AM 72.0 °F 54.0 °F 53% 30.18 in 9.0 mi Variable 5.8 mph - N/A   Scattered Clouds
12:53 PM 75.9 °F 53.1 °F 45% 30.15 in 10.0 mi WSW 10.4 mph 19.6 mph N/A   Scattered Clouds
1:53 PM 77.0 °F 52.0 °F 42% 30.12 in 10.0 mi WSW 10.4 mph - N/A   Clear
2:53 PM 79.0 °F 48.9 °F 35% 30.09 in 10.0 mi West 15.0 mph 20.7 mph N/A   Partly Cloudy
3:53 PM 79.0 °F 48.0 °F 34% 30.05 in 10.0 mi WSW 12.7 mph - N/A   Mostly Cloudy
4:53 PM 80.1 °F 46.9 °F 31% 30.03 in 10.0 mi WSW 16.1 mph 19.6 mph N/A   Partly Cloudy
5:53 PM 79.0 °F 46.0 °F 31% 30.01 in 10.0 mi SW 12.7 mph - N/A   Clear
6:53 PM 77.0 °F 44.1 °F 31% 30.01 in 10.0 mi WSW 11.5 mph - N/A   Clear
7:53 PM 75.0 °F 46.0 °F 36% 30.01 in 10.0 mi WSW 10.4 mph - N/A   Clear
8:53 PM 72.0 °F 46.9 °F 41% 30.02 in 10.0 mi SW 6.9 mph - N/A   Clear
9:53 PM 68.0 °F 48.0 °F 49% 30.04 in 10.0 mi SW 6.9 mph - N/A   Clear
10:53 PM 69.1 °F 48.9 °F 49% 30.03 in 10.0 mi West 5.8 mph - N/A   Clear
11:53 PM 66.9 °F 48.9 °F 52% 30.02 in 10.0 mi Calm Calm - N/A   Clear